Location: Namasale
(1.5000°N, 32.6167°E)
Time: 01:51:41
(UTC+00:00)

N. Korean satellite - Pass Details

Date: 15 December 2021
Orbit: 447 x 490 km, 97.3° (Epoch: 27 January)

Event Time Altitude Azimuth Distance (km) Brightness Sun altitude
Rises 02:53:18 0° 2° (N) 2,458 9.9 -12.4°
Reaches altitude 10° 02:55:21 10° 357° (N) 1,595 8.9 -11.9°
Maximum altitude 02:58:40 50° 281° (W) 596 6.6 -11.1°
Drops below altitude 10° 03:02:04 10° 204° (SSW) 1,628 9.2 -10.4°
Sets 03:04:11 0° 199° (SSW) 2,516 10.3 -9.9°
